www.pogodaiklimat.ru

Погода и климат >> Архив погоды >> Россия >> Саратовская область >> Калининск


ПОГОДА в Калининске

  • Прогноз погоды в Калининске
  • Монитор погоды в Калининске

АРХИВ ПОГОДЫ в Калининске

Время (UTC), дата Ветер
(напр.,м/с)
 
Видим.   Явления Облачность Т
(С)
Тd
(С)
f
(%)
Тe
(С)
Тes
(С)
Комфортность P
(гПа)
Po
(гПа)
Тmin
(С)
Tmax
(С)
R
(мм)
R24
(мм)
S
(см)
15 16.09 З 4
{14}
20 км 10/8 700 м
[Sc Ac trans]
+20.0 +2.4 31 +20 +20 1004.9 987.3 +22.1
18 16.09 З 5 15 км 10/8 700 м
[Sc Ac trans]
+16.5 +7.8 56 +16 +16 1006.3 988.6
21 16.09 З 2 17 км 8/8 660 м
[Sc]
+13.7 +7.1 64 +13 +13 1006.1 988.1
00 17.09 штиль 0 17 км 8/8 660 м
[Sc]
+8.4 +7.7 95 +7 +7 1006.3 988.0
03 17.09 С 1 20 км 5/3 600 м
[Sc Ac trans]
+6.8 +5.6 92 +6 +6 1006.1 987.7 +6.8
06 17.09 З 4 20 км 9/6 660 м
[Sc Ac trans]
+15.0 +8.4 65 +14 +15 1005.2 987.4 +6.7
09 17.09 З 6-10
{10}
20 км 9/4 600 м
[Cu med, cong Ac trans Ci sp]
+20.1 +7.1 43 +21 +22 комфорт 1003.4 985.9
12 17.09 З 5
{11}
20 км 9/4 600 м
[Cu med, cong Ac trans Ci sp]
+20.8 +4.8 35 +21 +22 комфорт 1002.1 984.7
15 17.09 З 2 20 км 10/6 450 м
[Cb calv Ac trans Ci sp]
+18.8 +4.7 39 +20 +20 1001.6 984.0 +21.4
18 17.09 СЗ 2 18 км 9/3 600 м
[Sc Ac trans Ci sp]
+15.7 +5.4 50 +16 +16 1003.2 985.4
21 17.09 С 1 18 км 6/0
[Ac trans]
+7.0 +5.4 90 +6 +6 1004.7 986.4
00 18.09 СЗ 1 18 км ясно +4.6 +4.1 97 +3 +3 1005.5 987.0
03 18.09 штиль 0 20 км 6/3 600 м
[Sc Ac trans]
+2.9 +1.9 93 +2 +2 1006.1 987.5 +2.2
06 18.09 ЮВ 2 20 км 5/3 600 м
[Cu hum Ci sp]
+12.8 +5.2 60 +12 +15 1005.4 987.4
09 18.09 ЮЗ 5
{10}
20 км 9/4 600 м
[Cu hum Ci sp]
+18.0 +4.9 42 +18 +20 1003.9 986.3
12 18.09 З 4 20 км 10/6 450 м
[Cb cap As op]
+17.7 +3.4 39 +17 +18 1002.1 984.4
15 18.09 Ю 2 10 км слаб. ливневой дождь 10/8 420 м
[Cb cap Ac und]
+11.9 +10.8 93 +11 +11 1000.1 982.2 +18.2 0.7
18 18.09 З 5
{10}
12 км в посл. час ливневой дождь 10/8 420 м
[Cb cap Ac und]
+11.9 +11.2 95 +9 +9 998.2 980.3
21 18.09 З 6
{17}
14 км 3/0
[Ac trans]
+7.7 +5.7 87 +3 +3 999.4 981.2
00 19.09 З 5
{14}
15 км 10/8 400 м
[Cb cap Ac und]
+7.4 +5.6 88 +3 +3 1000.3 982.0
03 19.09 З 8-14
{15}
10 км в посл. час ливневой дождь 10/10 400 м
[Cb cap]
+6.9 +6.5 97 +2 +2 1001.3 983.1 +6.8 0.5
06 19.09 З 6-11
{15}
20 км {ливн. осадки, дождь} 10/9 400 м
[Cb calv As op]
+9.3 +7.9 91 +5 +5 1007.3 989.1
09 19.09 З 6-11
{12}
20 км 9/8 400 м
[Cb calv Ac trans]
+12.0 +7.3 73 +9 +10 1010.9 992.8
12 19.09 СЗ 3
{12}
20 км в посл. час ливневой дождь 6/5 360 м
[Cb calv Ac trans]
+12.2 +7.1 71 +11 +12 1012.5 994.3
15 19.09 З 3
{11}
20 км в посл. час ливневой дождь 8/8 420 м
[Cb calv Ac trans]
+10.0 +6.0 76 +8 +8 1014.1 995.8 +14.2 0.6
18 19.09 З 2 14 км {ливн. осадки} 1/0
[Ac trans]
+8.2 +5.9 85 +6 +6 1015.8 997.4
21 19.09 З 1 15 км 3/0
[Ac trans]
+7.7 +6.1 90 +7 +7 1015.9 997.4
00 20.09 С 1 15 км 10/10 720 м
[Sc]
+5.4 +4.0 91 +4 +4 1016.3 997.7
03 20.09 С 2 10 км 3/3 600 м
[Sc]
+2.5 +1.9 96 -1 -1 1016.7 997.8 +2.2
06 20.09 ЮЗ 1 20 км 3/3 600 м
[Sc]
+9.8 +6.4 79 +9 +13 1016.6 998.2
09 20.09 З 3 20 км 8/8 420 м
[Cb calv Ac trans]
+12.9 +4.7 57 +12 +13 1015.4 997.2
12 20.09 З 4 20 км 9/8 420 м
[Cb calv Ac trans]
+13.4 +4.5 55 +12 +12 1014.3 996.2
15 20.09 ЮЗ 1 20 км 10/8 450 м
[Cb calv Ac trans]
+11.5 +3.5 58 +12 +12 1014.0 995.8 +13.9
18 20.09 штиль 0 16 км 3/0
[Ac trans]
+5.7 +4.9 95 +5 +5 1014.6 996.0
21 20.09 С 1 17 км 6/4 600 м
[Sc Ac trans]
+5.1 +3.6 90 +4 +4 1014.1 995.5
00 21.09 штиль 0 18 км 9/9 660 м
[Sc]
+3.6 +2.8 94 +2 +2 1013.5 994.7
03 21.09 СЗ 1 20 км 6/4 600 м
[Sc Ac trans]
+3.9 +2.6 91 +2 +2 1013.2 994.5 +3.6
06 21.09 СЗ 3 20 км 1/0
[Ac trans]
+9.4 +5.7 78 +7 +10 1012.8 994.5 +3.4
09 21.09 СЗ 4 20 км 8/6 450 м
[Cb calv Ac trans]
+12.6 +2.9 52 +11 +13 1011.7 993.6
12 21.09 З 4 20 км 8/6 480 м
[Cb calv Ac trans]
+12.8 +1.6 46 +11 +12 1011.0 992.9
15 21.09 СЗ 2 20 км 6/4 600 м
[Sc Ac trans]
+9.5 +3.0 64 +8 +8 1011.3 993.0 +13.9
18 21.09 З 1 15 км ясно +5.6 +3.0 83 +4 +4 1012.2 993.6
21 21.09 СЗ 2 15 км ясно +2.9 +1.6 91 -0 -0 1012.3 993.5
00 22.09 СЗ 1 17 км ясно +0.9 +0.1 94 -1 -1 1011.5 992.6
03 22.09 Ю 1 2000 м дымка 8/3 600 м
[Sc diur, vesp Ac trans]
-1.8 -2.3 96 -4 -4 1010.5 991.4 -2.0
06 22.09 З 5 20 км 9/4 600 м
[Sc Ac trans]
+5.9 +2.2 77 +2 +2 1007.9 989.5
09 22.09 ЮЗ 6-11
{14}
10 км слаб. ливневой дождь 10/8 400 м
[Cb cap Ac und]
+5.4 +4.5 94 0 0 1004.2 985.7
12 22.09 З 6-11
{12}
4000 м слаб. ливневой дождь 10/10 400 м
[Cb cap]
+7.0 +6.3 95 +2 +2 1000.0 981.8
15 22.09 З 4
{13}
20 км {ливн. осадки} 8/6 420 м
[Cb cap Ac trans]
+8.0 +7.2 95 +5 +5 998.8 980.7 +8.5 2
18 22.09 З 5
{14}
15 км {ливн. осадки} 3/0
[Ac trans]
+5.7 +4.5 92 +1 +1 1000.9 982.5
21 22.09 З 5
{10}
14 км ясно +4.2 +1.8 84 -1 -1 1002.3 983.8
00 23.09 З 6-10
{11}
16 км 10/8 600 м
[Sc Ac und]
+3.2 +1.0 85 -3 -3 1004.2 985.6
03 23.09 З 5
{11}
20 км 9/8 400 м
[Cb cap Ac trans]
+3.0 +1.4 89 -2 -2 1006.6 987.9 +2.5 2
06 23.09 СЗ 4
{11}
20 км 9/8 400 м
[Cb calv Ac trans]
+5.1 +1.7 79 +1 +1 1010.4 991.8
09 23.09 СЗ 4
{11}
20 км 9/8 420 м
[Cb calv Ac trans]
+6.6 +1.1 68 +3 +4 1012.7 994.2
12 23.09 СЗ 6-10
{11}
20 км 8/8 420 м
[Cb calv]
+7.8 +0.6 60 +4 +4 1013.9 995.4

 

Местоположение метеостанции Калининск (Саратовская область, Россия): широта 51.48 долгота 44.50 высота над уровнем моря 152 м.

В архиве по умолчанию представлена погода в Калининске за последнюю неделю. Архивные данные за месяц целиком и за предыдущие месяцы, начиная с января 2011 года, Вы можете получить, выбрав интересующий диапазон дат из раскрывающегося списка и нажав кнопку "Ввод!".


*Определитесь, кто Вы:
робот инопланетянин человек

Внимание! Время в таблицах - всемирное. Для получения местного времени необходимо прибавить поправку, которая равна 4 ч.

Смотрите также архив погоды в соседних городах и на ближайших метеорологических станциях:

Погода в Аткарске (Саратовская область, Россия) (57 км)
Погода в Октябрьском Городке (Саратовская область, Россия) (68 км)
Погода в Рудне (Волгоградская область, Россия) (72 км)
Погода в Сплавнухе (Саратовская область, Россия) (76 км)
Погода в Росташах (Саратовская область, Россия) (77 км)
Погода в Елани (Волгоградская область, Россия) (80 км)
Погода в Балашове (Саратовская область, Россия) (94 км)
Погода в Ртищево (Саратовская область, Россия) (99 км)
Погода в Саратове ЮВ (Саратовская область, Россия) (104 км)
Погода в Саратове (Саратовская область, Россия) (106 км)

Пояснения к столбцам:

Ветер - указаны скорость ветра в м/с - средняя за 10 мин, порывы в срок и между сроками (в фигурных скобках) и направление, откуда дует ветер: С - северный, СВ - северо-восточный, В - восточный, ЮВ - юго-восточный, Ю - южный, ЮЗ - юго-западный, З - западный, СЗ - северо-западный.
Видимость - горизонтальная дальность видимости в метрах или километрах. При видимости от 1 до 10 км при отсутствии осадков обычно наблюдается дымка, при ухудшении видимости до 1 км и менее - туман. В сухую погоду видимость может ухудшаться дымом, пылью или мглою.
Явления - указаны атмосферные явления, наблюдавшиеся в срок или в последний час перед сроком; фигурными скобками обозначены явления, наблюдавшиеся между сроками (за 1-3 часа до срока); квадратными скобками обозначены град или гололедные отложения с указанием их диаметра в мм.
Облачность - указаны через наклонную черту общая и нижняя облачность в баллах и высота нижней границы облаков в метрах; квадратными скобками обозначены формы облаков: Ci - перистые, Cs - перисто-слоистые, Cc - перисто-кучевые, Ac - высококучевые, As - высокослоистые, Sc - слоисто-кучевые, Ns - слоисто-дождевые, Cu - кучевые, Cb - кучево-дождевые. Подробнее классификацию облаков см. в Атласе облаков (PDF).
T - Температура воздуха - температура, измеренная на высоте 2 м над землей.
Td - Температура точки росы - температура, при понижении до которой содержащийся в воздухе водяной пар достигнет насыщения.
f - Относительная влажность воздуха - влажноcть воздуха, измеренная на высоте 2 м над землей.
Te - Эффективная температура - температура, которую ощущает одетый по сезону человек в тени. Характеристика душности погоды. При расчете учитывается влияние влажности воздуха и скорости ветра на теплоощущения человека.
Tes - Эффективная температура на солнце - температура, которую ощущает человек, с поправкой на солнечный нагрев. Характеристика знойности погоды. Зависит от высоты солнца над горизонтом, облачности и скорости ветра. Ночью, в пасмурную погоду, а также при ветре 12 м/с и более поправка равна нулю.
P - Атмосферное давление - приведенное к уровню моря атмосферное давление.
Po - Атмосферное давление - измеренное на уровне метеостанции атмосферное давление.
Tmin - Минимальная температура - минимум температуры воздуха на высоте 2 м над землей.
Tmax - Максимальная температура - максимум температуры воздуха на высоте 2 м над землей.
R - Количество осадков - Количество выпавших осадков за период времени, мм. При наведении курсора мыши на число - период времени, за который выпало указанное количество осадков.
R24 - Количество осадков - Количество выпавших осадков за 24 часа, мм.
S - Снежный покров - Высота снежного покрова, см. При наведении курсора мыши на число - состояние снежного покрова и степень покрытия местности в баллах.